| time (UTC) | temp F | wind direction | speed MPH | gust MPH | rain 1hr in | rain 24hr in | rain mn in | humidity % | barometer mb |
| 20260507124824 | 64 | 355 | 3.0 | 3.0 | 0.00 | 1.55 | 1.55 | 99 | 1013.9 |
| 20260507124320 | 64 | 320 | 2.0 | 2.0 | 0.00 | 1.55 | 1.55 | 99 | 1014.0 |
| 20260507123819 | 64 | 315 | 3.0 | 3.0 | 0.00 | 1.55 | 1.55 | 99 | 1013.7 |
| 20260507123316 | 64 | 317 | 2.0 | 3.0 | 0.00 | 1.55 | 1.55 | 99 | 1013.7 |
| 20260507122812 | 64 | 336 | 2.0 | 3.0 | 0.00 | 1.55 | 1.55 | 99 | 1013.3 |
| 20260507122308 | 65 | 345 | 1.0 | 1.0 | 0.00 | 1.55 | 1.55 | 99 | 1013.2 |
| 20260507121804 | 65 | 334 | 1.0 | 2.0 | 0.00 | 1.55 | 1.55 | 99 | 1013.1 |
| 20260507121300 | 65 | 335 | 2.0 | 2.0 | 0.00 | 1.55 | 1.55 | 99 | 1013.3 |
| 20260507120756 | 65 | 325 | 2.0 | 2.0 | 0.00 | 1.55 | 1.55 | 99 | 1013.2 |
| 20260507120253 | 65 | 351 | 1.0 | 2.0 | 0.00 | 1.55 | 1.55 | 99 | 1013.0 |
| 20260507115749 | 65 | 349 | 3.0 | 3.0 | 0.00 | 1.55 | 1.55 | 99 | 1013.0 |
| 20260507115245 | 65 | 4 | 1.0 | 2.0 | 0.00 | 1.55 | 1.55 | 99 | 1012.6 |
| 20260507114741 | 65 | 342 | 3.0 | 5.0 | 0.00 | 1.55 | 1.55 | 99 | 1012.5 |
| 20260507114238 | 65 | 346 | 3.0 | 3.0 | 0.00 | 1.55 | 1.55 | 99 | 1012.4 |
| 20260507113736 | 65 | 322 | 1.0 | 2.0 | 0.00 | 1.55 | 1.55 | 99 | 1012.1 |
| 20260507113232 | 65 | 347 | 3.0 | 5.0 | 0.00 | 1.55 | 1.55 | 99 | 1012.1 |
| 20260507112730 | 65 | 350 | 2.0 | 3.0 | 0.00 | 1.55 | 1.55 | 99 | 1012.4 |
| 20260507112227 | 66 | 313 | 4.0 | 6.0 | 0.00 | 1.55 | 1.55 | 99 | 1012.1 |
| 20260507111725 | 66 | 339 | 4.0 | 5.0 | 0.00 | 1.55 | 1.55 | 99 | 1012.5 |
| 20260507111221 | 66 | 37 | 2.0 | 3.0 | 0.00 | 1.55 | 1.55 | 99 | 1012.1 |
| 20260507110717 | 66 | 51 | 1.0 | 2.0 | 0.00 | 1.55 | 1.55 | 99 | 1012.0 |
| 20260507110214 | 66 | 349 | 1.0 | 2.0 | 0.00 | 1.55 | 1.55 | 99 | 1012.3 |
| 20260507105711 | 67 | 5 | 0.0 | 0.0 | 0.00 | 1.55 | 1.55 | 99 | 1012.0 |
| 20260507105206 | 67 | 335 | 3.0 | 5.0 | 0.00 | 1.55 | 1.55 | 99 | 1011.8 |
| 20260507104704 | 67 | 7 | 0.0 | 0.0 | 0.00 | 1.55 | 1.55 | 99 | 1011.8 |
| 20260507104200 | 67 | 8 | 0.0 | 1.0 | 0.00 | 1.55 | 1.55 | 99 | 1011.6 |
| 20260507103656 | 67 | 355 | 1.0 | 1.0 | 0.00 | 1.55 | 1.55 | 99 | 1011.6 |
| 20260507103153 | 67 | 340 | 3.0 | 3.0 | 0.00 | 1.55 | 1.55 | 99 | 1011.6 |
| 20260507102649 | 67 | 359 | 1.0 | 1.0 | 0.00 | 1.55 | 1.55 | 99 | 1011.2 |
| 20260507102146 | 67 | 351 | 3.0 | 3.0 | 0.00 | 1.55 | 1.55 | 99 | 1011.3 |
| 20260507101642 | 67 | 47 | 0.0 | 0.0 | 0.05 | 1.55 | 1.55 | 99 | 1011.5 |
| 20260507101138 | 67 | 37 | 1.0 | 1.0 | 0.05 | 1.55 | 1.55 | 99 | 1011.4 |
| 20260507100635 | 68 | 322 | 0.0 | 1.0 | 0.00 | 1.54 | 1.54 | 99 | 1011.4 |
| 20260507100134 | 68 | 358 | 1.0 | 2.0 | 0.00 | 1.54 | 1.54 | 99 | 1011.3 |
| 20260507095631 | 68 | 7 | 0.0 | 1.0 | 0.07 | 1.54 | 1.54 | 99 | 1011.2 |
| 20260507095127 | 68 | 0 | 1.0 | 2.0 | 0.12 | 1.54 | 1.54 | 99 | 1011.1 |
| 20260507094624 | 68 | 6 | 2.0 | 2.0 | 0.05 | 1.53 | 1.53 | 99 | 1011.5 |
| 20260507094121 | 68 | 53 | 0.0 | 0.0 | 0.05 | 1.53 | 1.53 | 99 | 1011.7 |
| 20260507093618 | 68 | 79 | 0.0 | 0.0 | 0.24 | 1.52 | 1.52 | 99 | 1011.1 |
| 20260507093117 | 68 | 34 | 1.0 | 2.0 | 0.78 | 1.52 | 1.52 | 99 | 1011.2 |
| 20260507092613 | 68 | 46 | 0.0 | 0.0 | 0.54 | 1.48 | 1.48 | 99 | 1011.5 |
| 20260507092109 | 68 | 37 | 1.0 | 1.0 | 0.00 | 1.39 | 1.39 | 99 | 1011.1 |
| 20260507091606 | 68 | 54 | 0.0 | 0.0 | 0.00 | 1.39 | 1.39 | 99 | 1010.9 |
| 20260507091102 | 68 | 338 | 1.0 | 2.0 | 0.00 | 1.39 | 1.39 | 99 | 1011.1 |
| 20260507090558 | 68 | 105 | 1.0 | 1.0 | 0.07 | 1.39 | 1.39 | 99 | 1010.8 |
| 20260507090055 | 69 | 96 | 1.0 | 1.0 | 0.24 | 1.39 | 1.39 | 99 | 1011.6 |
| 20260507085552 | 69 | 343 | 0.0 | 1.0 | 1.21 | 1.38 | 1.38 | 99 | 1010.8 |
| 20260507085049 | 69 | 317 | 5.0 | 6.0 | 1.87 | 1.35 | 1.35 | 99 | 1010.4 |
| 20260507084545 | 70 | 14 | 2.0 | 3.0 | 1.51 | 1.19 | 1.19 | 99 | 1011.2 |
| 20260507084043 | 70 | 28 | 0.0 | 0.0 | 0.90 | 1.04 | 1.04 | 99 | 1010.6 |
| 20260507083539 | 71 | 20 | 1.0 | 1.0 | 0.24 | 0.93 | 0.93 | 99 | 1010.5 |
| 20260507083036 | 71 | 69 | 0.0 | 0.0 | 0.00 | 0.89 | 0.89 | 99 | 1010.6 |
| 20260507082532 | 71 | 65 | 0.0 | 0.0 | 0.00 | 0.89 | 0.89 | 99 | 1010.4 |
| 20260507082028 | 71 | 71 | 0.0 | 0.0 | 0.07 | 0.89 | 0.89 | 99 | 1010.4 |
| 20260507081525 | 71 | 324 | 2.0 | 2.0 | 0.12 | 0.89 | 0.89 | 99 | 1010.2 |
| 20260507081022 | 71 | 96 | 0.0 | 1.0 | 0.05 | 0.88 | 0.88 | 99 | 1010.3 |
| 20260507080518 | 71 | 52 | 0.0 | 0.0 | 0.00 | 0.87 | 0.87 | 99 | 1010.2 |
| 20260507080014 | 71 | 104 | 0.0 | 1.0 | 0.07 | 0.87 | 0.87 | 99 | 1010.8 |
| 20260507075510 | 71 | 70 | 0.0 | 0.0 | 0.19 | 0.87 | 0.87 | 99 | 1010.6 |
| 20260507075007 | 71 | 80 | 0.0 | 1.0 | 0.12 | 0.86 | 0.86 | 99 | 1010.7 |
| 20260507074503 | 71 | 53 | 0.0 | 1.0 | 0.00 | 0.84 | 0.84 | 99 | 1010.1 |
| 20260507074002 | 71 | 68 | 0.0 | 0.0 | 0.00 | 0.84 | 0.84 | 99 | 1010.4 |
| 20260507073457 | 71 | 84 | 0.0 | 1.0 | 0.00 | 0.84 | 0.84 | 99 | 1010.5 |
| 20260507072954 | 71 | 62 | 0.0 | 0.0 | 0.35 | 0.84 | 0.84 | 99 | 1010.8 |
| 20260507072452 | 71 | 87 | 0.0 | 0.0 | 0.54 | 0.84 | 0.84 | 99 | 1010.6 |
| 20260507071949 | 71 | 60 | 0.0 | 0.0 | 0.35 | 0.78 | 0.78 | 99 | 1010.7 |
| 20260507071446 | 71 | 83 | 0.0 | 0.0 | 0.24 | 0.75 | 0.75 | 99 | 1010.7 |
| 20260507070942 | 71 | 67 | 0.0 | 0.0 | 0.12 | 0.73 | 0.73 | 99 | 1010.7 |
| 20260507070440 | 71 | 77 | 0.0 | 0.0 | 0.00 | 0.71 | 0.71 | 99 | 1010.6 |
| 20260507065936 | 71 | 70 | 0.0 | 0.0 | 0.00 | 0.71 | 0.71 | 99 | 1010.9 |
| 20260507065433 | 71 | 66 | 0.0 | 0.0 | 0.07 | 0.71 | 0.71 | 99 | 1011.0 |
| 20260507064930 | 71 | 74 | 0.0 | 0.0 | 0.12 | 0.71 | 0.71 | 99 | 1011.0 |
| 20260507064428 | 71 | 66 | 0.0 | 0.0 | 0.47 | 0.70 | 0.70 | 99 | 1010.8 |
| 20260507063926 | 71 | 81 | 0.0 | 0.0 | 0.59 | 0.69 | 0.69 | 99 | 1011.0 |
| 20260507063423 | 71 | 66 | 0.0 | 0.0 | 0.54 | 0.62 | 0.62 | 99 | 1011.1 |
| 20260507062920 | 71 | 73 | 0.0 | 0.0 | 0.97 | 0.59 | 0.59 | 99 | 1011.2 |
| 20260507062417 | 72 | 71 | 0.0 | 0.0 | 1.21 | 0.53 | 0.53 | 99 | 1011.1 |
| 20260507061914 | 72 | 79 | 0.0 | 0.0 | 0.78 | 0.43 | 0.43 | 99 | 1010.8 |
| 20260507061412 | 72 | 74 | 0.0 | 0.0 | 0.17 | 0.33 | 0.33 | 99 | 1010.9 |
| 20260507060911 | 72 | 66 | 0.0 | 0.0 | 0.00 | 0.30 | 0.30 | 99 | 1010.5 |
| 20260507060407 | 72 | 74 | 0.0 | 0.0 | 0.00 | 0.30 | 0.30 | 99 | 1010.5 |
| 20260507055904 | 72 | 45 | 0.0 | 0.0 | 0.00 | 0.30 | 0.30 | 99 | 1010.7 |
| 20260507055359 | 72 | 83 | 0.0 | 0.0 | 0.00 | 0.30 | 0.30 | 99 | 1010.7 |
| 20260507054856 | 72 | 68 | 0.0 | 0.0 | 0.00 | 0.30 | 0.30 | 99 | 1010.6 |
| 20260507054352 | 72 | 88 | 0.0 | 0.0 | 0.00 | 0.30 | 0.30 | 99 | 1010.9 |
| 20260507053849 | 72 | 345 | 3.0 | 3.0 | 0.00 | 0.30 | 0.30 | 99 | 1010.7 |
| 20260507053347 | 71 | 96 | 1.0 | 1.0 | 0.00 | 0.30 | 0.30 | 99 | 1010.8 |
| 20260507052846 | 71 | 132 | 3.0 | 3.0 | 0.00 | 0.30 | 0.30 | 99 | 1010.3 |
| 20260507052342 | 71 | 105 | 0.0 | 1.0 | 0.07 | 0.30 | 0.30 | 99 | 1010.2 |
| 20260507051839 | 71 | 246 | 2.0 | 2.0 | 0.12 | 0.30 | 0.30 | 99 | 1009.4 |
| 20260507051337 | 72 | 355 | 2.0 | 2.0 | 0.78 | 0.29 | 0.29 | 99 | 1009.6 |
| 20260507050834 | 72 | 71 | 0.0 | 0.0 | 2.29 | 0.28 | 0.28 | 99 | 1009.5 |
| 20260507050330 | 72 | 18 | 3.0 | 3.0 | 2.93 | 0.16 | 0.16 | 99 | 1009.9 |
| 20260507045827 | 74 | 359 | 7.0 | 9.0 | 3.28 | 1.95 | 1.95 | 99 | 1009.9 |
| 20260507045324 | 74 | 351 | 3.0 | 3.0 | 3.47 | 1.74 | 1.74 | 99 | 1009.3 |
| 20260507044821 | 74 | 35 | 5.0 | 7.0 | 2.48 | 1.40 | 1.40 | 99 | 1009.9 |
| 20260507044317 | 74 | 11 | 1.0 | 1.0 | 1.44 | 1.13 | 1.13 | 99 | 1010.3 |
| 20260507043813 | 74 | 309 | 2.0 | 2.0 | 0.71 | 0.99 | 0.99 | 99 | 1009.6 |
| 20260507043310 | 74 | 66 | 0.0 | 0.0 | 0.19 | 0.89 | 0.89 | 99 | 1010.3 |
| 20260507042806 | 74 | 43 | 0.0 | 0.0 | 0.07 | 0.87 | 0.87 | 99 | 1009.8 |
| 20260507042306 | 74 | 56 | 0.0 | 0.0 | 0.00 | 0.86 | 0.86 | 99 | 1010.1 |
| 20260507041759 | 74 | 60 | 0.0 | 0.0 | 0.00 | 0.86 | 0.86 | 99 | 1009.9 |
| 20260507041255 | 74 | 59 | 0.0 | 0.0 | 0.00 | 0.86 | 0.86 | 99 | 1010.4 |
| 20260507040753 | 74 | 345 | 0.0 | 0.0 | 0.00 | 0.86 | 0.86 | 99 | 1010.2 |
| 20260507040249 | 74 | 68 | 0.0 | 0.0 | 0.00 | 0.86 | 0.86 | 99 | 1009.8 |
| 20260507035745 | 74 | 67 | 0.0 | 0.0 | 0.00 | 0.86 | 0.86 | 99 | 1010.5 |
| 20260507035240 | 74 | 61 | 0.0 | 0.0 | 0.00 | 0.86 | 0.86 | 99 | 1010.2 |
| 20260507034738 | 74 | 71 | 0.0 | 0.0 | 0.00 | 0.86 | 0.86 | 99 | 1009.8 |
| 20260507034235 | 74 | 73 | 0.0 | 0.0 | 0.00 | 0.86 | 0.86 | 99 | 1010.2 |
| 20260507033734 | 74 | 139 | 0.0 | 0.0 | 0.00 | 0.86 | 0.86 | 99 | 1010.3 |
| 20260507033231 | 74 | 175 | 0.0 | 0.0 | 0.00 | 0.86 | 0.86 | 99 | 1010.2 |
| 20260507032728 | 73 | 193 | 0.0 | 0.0 | 0.00 | 0.86 | 0.86 | 99 | 1010.1 |
| 20260507032224 | 73 | 75 | 0.0 | 0.0 | 0.00 | 0.86 | 0.86 | 99 | 1010.2 |
| 20260507031721 | 73 | 71 | 0.0 | 0.0 | 0.00 | 0.86 | 0.86 | 99 | 1010.4 |
| 20260507031217 | 73 | 61 | 0.0 | 0.0 | 0.00 | 0.86 | 0.86 | 99 | 1010.8 |
| 20260507030714 | 73 | 62 | 0.0 | 0.0 | 0.00 | 0.86 | 0.86 | 99 | 1010.9 |
| 20260507030212 | 73 | 61 | 0.0 | 0.0 | 0.00 | 0.86 | 0.86 | 99 | 1011.0 |
| 20260507025708 | 73 | 57 | 0.0 | 0.0 | 0.00 | 0.86 | 0.86 | 99 | 1010.8 |
| 20260507025206 | 73 | 94 | 0.0 | 0.0 | 0.00 | 0.86 | 0.86 | 99 | 1010.7 |
| 20260507024704 | 73 | 87 | 0.0 | 0.0 | 0.00 | 0.86 | 0.86 | 99 | 1010.5 |
| 20260507024200 | 72 | 73 | 0.0 | 0.0 | 0.00 | 0.86 | 0.86 | 99 | 1010.8 |
| 20260507023656 | 73 | 58 | 0.0 | 0.0 | 0.00 | 0.86 | 0.86 | 99 | 1010.4 |
| 20260507023154 | 73 | 70 | 0.0 | 0.0 | 0.00 | 0.86 | 0.86 | 99 | 1010.4 |
| 20260507022650 | 72 | 9 | 0.0 | 0.0 | 0.00 | 0.86 | 0.86 | 99 | 1010.4 |
| 20260507022146 | 72 | 71 | 0.0 | 0.0 | 0.00 | 0.86 | 0.86 | 99 | 1010.1 |
| 20260507021643 | 72 | 0 | 0.0 | 0.0 | 0.00 | 0.86 | 0.86 | 99 | 1010.2 |
| 20260507021138 | 72 | 49 | 0.0 | 0.0 | 0.00 | 0.86 | 0.86 | 99 | 1010.2 |
| 20260507020637 | 71 | 70 | 0.0 | 0.0 | 0.00 | 0.86 | 0.86 | 99 | 1010.3 |
| 20260507020132 | 71 | 64 | 0.0 | 0.0 | 0.00 | 0.86 | 0.86 | 99 | 1010.3 |
| 20260507015631 | 71 | 59 | 0.0 | 0.0 | 0.00 | 0.86 | 0.86 | 99 | 1010.6 |
| 20260507015128 | 72 | 57 | 0.0 | 0.0 | 0.00 | 0.86 | 0.86 | 99 | 1010.6 |
| 20260507014624 | 72 | 56 | 0.0 | 0.0 | 0.00 | 0.86 | 0.86 | 99 | 1010.7 |
| 20260507014120 | 72 | 45 | 0.0 | 0.0 | 0.00 | 0.86 | 0.86 | 99 | 1011.0 |
| 20260507013617 | 71 | 352 | 0.0 | 1.0 | 0.00 | 0.86 | 0.86 | 99 | 1010.8 |
| 20260507013114 | 71 | 58 | 0.0 | 0.0 | 0.00 | 0.86 | 0.86 | 99 | 1010.8 |
| 20260507012612 | 71 | 69 | 0.0 | 0.0 | 0.00 | 0.86 | 0.86 | 99 | 1010.5 |
| 20260507012107 | 71 | 69 | 0.0 | 0.0 | 0.00 | 0.86 | 0.86 | 99 | 1010.7 |
| 20260507011606 | 71 | 65 | 0.0 | 0.0 | 0.00 | 0.86 | 0.86 | 99 | 1010.6 |
| 20260507011101 | 71 | 63 | 0.0 | 0.0 | 0.00 | 0.86 | 0.86 | 99 | 1010.6 |
| 20260507010556 | 71 | 65 | 0.0 | 0.0 | 0.00 | 0.86 | 0.86 | 99 | 1010.5 |
| 20260507010052 | 71 | 74 | 0.0 | 0.0 | 0.00 | 0.86 | 0.86 | 99 | 1010.5 |
| 20260507005550 | 71 | 73 | 0.0 | 0.0 | 0.00 | 0.86 | 0.86 | 99 | 1010.1 |
| 20260507005046 | 71 | 66 | 0.0 | 0.0 | 0.00 | 0.86 | 0.86 | 99 | 1010.5 |
| 20260507004543 | 71 | 55 | 0.0 | 1.0 | 0.00 | 0.86 | 0.86 | 99 | 1010.4 |
| 20260507004041 | 71 | 71 | 0.0 | 0.0 | 0.00 | 0.86 | 0.86 | 99 | 1010.3 |
| 20260507003536 | 71 | 58 | 0.0 | 0.0 | 0.00 | 0.86 | 0.86 | 99 | 1010.8 |
| 20260507003032 | 71 | 72 | 0.0 | 0.0 | 0.12 | 0.86 | 0.86 | 99 | 1010.8 |
| 20260507002529 | 71 | 79 | 0.0 | 0.0 | 0.66 | 0.86 | 0.86 | 99 | 1010.9 |
| 20260507002024 | 71 | 110 | 0.0 | 0.0 | 0.71 | 0.84 | 0.84 | 99 | 1011.0 |
| 20260507001521 | 71 | 82 | 0.0 | 1.0 | 1.68 | 0.75 | 0.75 | 99 | 1011.6 |
| 20260507001019 | 74 | 93 | 0.0 | 1.0 | 2.53 | 0.72 | 0.72 | 99 | 1011.3 |
| 20260507000514 | 76 | 237 | 3.0 | 3.0 | 1.61 | 0.49 | 0.49 | 99 | 1009.9 |
| 20260507000010 | 76 | 88 | 0.0 | 0.0 | 0.78 | 0.30 | 0.30 | 99 | 1010.4 |
| 20260506235508 | 76 | 105 | 0.0 | 0.0 | 0.47 | 0.21 | 0.21 | 99 | 1009.5 |
| 20260506235003 | 76 | 99 | 0.0 | 0.0 | 0.42 | 0.16 | 0.16 | 99 | 1009.5 |
| 20260506234501 | 76 | 58 | 0.0 | 0.0 | 0.24 | 0.12 | 0.12 | 99 | 1009.2 |
| 20260506233958 | 76 | 79 | 0.0 | 0.0 | 0.07 | 0.09 | 0.09 | 99 | 1009.4 |
| 20260506233454 | 76 | 70 | 0.0 | 0.0 | 0.00 | 0.08 | 0.08 | 99 | 1009.3 |
| 20260506232951 | 76 | 53 | 0.0 | 0.0 | 0.00 | 0.08 | 0.08 | 99 | 1010.1 |
| 20260506232448 | 76 | 336 | 0.0 | 1.0 | 0.00 | 0.08 | 0.08 | 99 | 1009.6 |
| 20260506231943 | 76 | 72 | 0.0 | 0.0 | 0.00 | 0.08 | 0.08 | 99 | 1009.7 |
| 20260506231441 | 77 | 60 | 0.0 | 0.0 | 0.00 | 0.08 | 0.08 | 99 | 1009.9 |
| 20260506230938 | 77 | 3 | 0.0 | 0.0 | 0.00 | 0.08 | 0.08 | 99 | 1009.8 |
| 20260506230434 | 77 | 65 | 0.0 | 0.0 | 0.00 | 0.08 | 0.08 | 99 | 1010.0 |
| 20260506225931 | 77 | 74 | 0.0 | 0.0 | 0.00 | 0.08 | 0.08 | 99 | 1009.7 |
| 20260506225429 | 77 | 87 | 0.0 | 0.0 | 0.00 | 0.08 | 0.08 | 99 | 1010.2 |
| 20260506224925 | 77 | 285 | 0.0 | 1.0 | 0.00 | 0.08 | 0.08 | 99 | 1009.9 |
| 20260506224423 | 77 | 59 | 0.0 | 0.0 | 0.00 | 0.08 | 0.08 | 99 | 1009.8 |
| 20260506223919 | 77 | 75 | 0.0 | 0.0 | 0.00 | 0.08 | 0.08 | 99 | 1009.9 |
| 20260506223414 | 77 | 61 | 0.0 | 0.0 | 0.00 | 0.08 | 0.08 | 99 | 1009.9 |
| 20260506222912 | 77 | 90 | 0.0 | 0.0 | 0.00 | 0.08 | 0.08 | 99 | 1010.0 |
| 20260506222409 | 77 | 70 | 0.0 | 0.0 | 0.00 | 0.08 | 0.08 | 99 | 1009.9 |
| 20260506221906 | 77 | 43 | 0.0 | 0.0 | 0.00 | 0.08 | 0.08 | 99 | 1010.1 |
| 20260506221403 | 77 | 78 | 0.0 | 0.0 | 0.00 | 0.08 | 0.08 | 99 | 1010.2 |
| 20260506220900 | 78 | 223 | 0.0 | 0.0 | 0.00 | 0.08 | 0.08 | 99 | 1010.4 |
| 20260506220355 | 78 | 223 | 0.0 | 0.0 | 0.00 | 0.08 | 0.08 | 99 | 1010.5 |
| 20260506215852 | 78 | 223 | 0.0 | 0.0 | 0.00 | 0.08 | 0.08 | 99 | 1010.2 |
| 20260506215348 | 78 | 67 | 0.0 | 0.0 | 0.00 | 0.08 | 0.08 | 99 | 1010.1 |
| 20260506214844 | 78 | 76 | 0.0 | 0.0 | 0.00 | 0.08 | 0.08 | 99 | 1010.3 |
| 20260506214341 | 79 | 86 | 0.0 | 0.0 | 0.00 | 0.08 | 0.08 | 99 | 1010.6 |
| 20260506213839 | 79 | 71 | 0.0 | 0.0 | 0.00 | 0.08 | 0.08 | 99 | 1010.5 |
| 20260506213336 | 80 | 57 | 0.0 | 0.0 | 0.00 | 0.08 | 0.08 | 99 | 1010.9 |
| 20260506212833 | 80 | 84 | 0.0 | 0.0 | 0.00 | 0.08 | 0.08 | 99 | 1010.9 |
| 20260506212329 | 80 | 86 | 0.0 | 0.0 | 0.00 | 0.08 | 0.08 | 99 | 1010.9 |
| 20260506211824 | 80 | 68 | 0.0 | 0.0 | 0.00 | 0.08 | 0.08 | 99 | 1010.9 |
| 20260506211321 | 80 | 60 | 0.0 | 0.0 | 0.00 | 0.08 | 0.08 | 99 | 1010.9 |
| 20260506210818 | 80 | 72 | 0.0 | 0.0 | 0.00 | 0.08 | 0.08 | 99 | 1010.9 |
| 20260506210315 | 80 | 101 | 0.0 | 0.0 | 0.00 | 0.08 | 0.08 | 99 | 1011.3 |
| 20260506205812 | 80 | 80 | 0.0 | 0.0 | 0.00 | 0.08 | 0.08 | 99 | 1011.4 |
| 20260506205308 | 80 | 99 | 0.0 | 0.0 | 0.00 | 0.08 | 0.08 | 99 | 1011.3 |
| 20260506204804 | 80 | 74 | 0.0 | 0.0 | 0.00 | 0.08 | 0.08 | 99 | 1011.3 |
| 20260506204303 | 80 | 67 | 0.0 | 0.0 | 0.00 | 0.08 | 0.08 | 99 | 1011.5 |
| 20260506203800 | 80 | 52 | 0.0 | 0.0 | 0.00 | 0.08 | 0.08 | 99 | 1011.4 |
| 20260506203257 | 79 | 84 | 0.0 | 0.0 | 0.00 | 0.08 | 0.08 | 99 | 1011.3 |
| 20260506202754 | 79 | 65 | 0.0 | 0.0 | 0.00 | 0.08 | 0.08 | 99 | 1011.4 |
| 20260506202251 | 79 | 72 | 0.0 | 0.0 | 0.05 | 0.08 | 0.08 | 99 | 1011.6 |
| 20260506201747 | 79 | 80 | 0.0 | 0.0 | 0.05 | 0.08 | 0.08 | 99 | 1011.9 |
| 20260506201244 | 79 | 81 | 0.0 | 0.0 | 0.07 | 0.07 | 0.07 | 98 | 1012.0 |
| 20260506200741 | 80 | 77 | 0.0 | 0.0 | 0.38 | 0.07 | 0.07 | 97 | 1011.9 |
| 20260506200238 | 80 | 84 | 0.0 | 1.0 | 0.31 | 0.06 | 0.06 | 95 | 1011.9 |
| 20260506195734 | 81 | 85 | 0.0 | 0.0 | 0.00 | 0.01 | 0.01 | 94 | 1011.9 |
| 20260506195230 | 81 | 101 | 1.0 | 1.0 | 0.00 | 0.01 | 0.01 | 93 | 1012.0 |
| 20260506194728 | 81 | 86 | 0.0 | 0.0 | 0.00 | 0.01 | 0.01 | 92 | 1011.9 |
| 20260506194224 | 81 | 90 | 0.0 | 0.0 | 0.00 | 0.01 | 0.01 | 92 | 1012.2 |
| 20260506193722 | 81 | 75 | 0.0 | 0.0 | 0.00 | 0.01 | 0.01 | 93 | 1012.4 |
| 20260506193219 | 81 | 87 | 1.0 | 1.0 | 0.00 | 0.01 | 0.01 | 92 | 1012.3 |
| 20260506192715 | 80 | 73 | 0.0 | 0.0 | 0.00 | 0.01 | 0.01 | 93 | 1012.5 |
| 20260506192212 | 80 | 75 | 0.0 | 0.0 | 0.00 | 0.01 | 0.01 | 93 | 1012.7 |
| 20260506191709 | 81 | 113 | 1.0 | 2.0 | 0.00 | 0.01 | 0.01 | 92 | 1012.9 |
| 20260506191205 | 81 | 102 | 0.0 | 1.0 | 0.00 | 0.01 | 0.01 | 91 | 1013.0 |
| 20260506190703 | 82 | 258 | 0.0 | 0.0 | 0.00 | 0.01 | 0.01 | 90 | 1012.9 |
| 20260506190159 | 82 | 188 | 0.0 | 0.0 | 0.00 | 0.01 | 0.01 | 88 | 1012.9 |
| 20260506185656 | 83 | 4 | 1.0 | 1.0 | 0.00 | 0.01 | 0.01 | 88 | 1012.8 |
| 20260506185152 | 83 | 49 | 0.0 | 0.0 | 0.00 | 0.01 | 0.01 | 91 | 1013.0 |
| 20260506184650 | 82 | 115 | 0.0 | 1.0 | 0.00 | 0.01 | 0.01 | 91 | 1013.0 |
| 20260506184147 | 81 | 72 | 0.0 | 1.0 | 0.00 | 0.01 | 0.01 | 92 | 1012.8 |
| 20260506183644 | 81 | 101 | 0.0 | 1.0 | 0.00 | 0.01 | 0.01 | 92 | 1013.2 |
| 20260506183140 | 81 | 130 | 0.0 | 0.0 | 0.00 | 0.01 | 0.01 | 92 | 1013.2 |
| 20260506182637 | 81 | 105 | 0.0 | 1.0 | 0.00 | 0.01 | 0.01 | 92 | 1013.0 |
| 20260506182134 | 81 | 69 | 0.0 | 0.0 | 0.00 | 0.01 | 0.01 | 92 | 1013.0 |
| 20260506181632 | 81 | 134 | 0.0 | 1.0 | 0.00 | 0.01 | 0.01 | 91 | 1013.2 |
| 20260506181129 | 81 | 153 | 0.0 | 0.0 | 0.00 | 0.01 | 0.01 | 93 | 1013.4 |
| 20260506180626 | 81 | 139 | 0.0 | 0.0 | 0.00 | 0.01 | 0.01 | 93 | 1013.2 |
| 20260506180122 | 80 | 36 | 0.0 | 0.0 | 0.00 | 0.01 | 0.01 | 94 | 1013.4 |
| 20260506175618 | 80 | 79 | 0.0 | 0.0 | 0.00 | 0.01 | 0.01 | 94 | 1013.3 |
| 20260506175114 | 79 | 70 | 0.0 | 0.0 | 0.00 | 0.01 | 0.01 | 94 | 1013.5 |
| 20260506174614 | 79 | 96 | 0.0 | 0.0 | 0.00 | 0.01 | 0.01 | 94 | 1013.7 |
| 20260506174110 | 80 | 70 | 0.0 | 0.0 | 0.00 | 0.01 | 0.01 | 94 | 1013.6 |
| 20260506173608 | 80 | 147 | 0.0 | 1.0 | 0.00 | 0.01 | 0.01 | 94 | 1013.7 |
| 20260506173104 | 80 | 113 | 0.0 | 0.0 | 0.00 | 0.01 | 0.01 | 94 | 1013.6 |
| 20260506172602 | 80 | 105 | 0.0 | 1.0 | 0.00 | 0.01 | 0.01 | 93 | 1013.7 |
| 20260506172057 | 79 | 94 | 0.0 | 0.0 | 0.00 | 0.01 | 0.01 | 95 | 1013.9 |
| 20260506171555 | 79 | 109 | 0.0 | 0.0 | 0.00 | 0.01 | 0.01 | 96 | 1013.8 |
| 20260506171053 | 78 | 90 | 0.0 | 0.0 | 0.00 | 0.01 | 0.01 | 97 | 1013.9 |
| 20260506170550 | 78 | 89 | 0.0 | 1.0 | 0.00 | 0.01 | 0.01 | 98 | 1013.8 |
| 20260506170047 | 77 | 59 | 0.0 | 0.0 | 0.00 | 0.01 | 0.01 | 99 | 1014.1 |
| 20260506165546 | 77 | 95 | 0.0 | 0.0 | 0.00 | 0.01 | 0.01 | 99 | 1013.9 |
| 20260506165042 | 77 | 20 | 0.0 | 0.0 | 0.00 | 0.01 | 0.01 | 99 | 1013.9 |
| 20260506164539 | 77 | 70 | 0.0 | 0.0 | 0.00 | 0.01 | 0.01 | 99 | 1013.9 |
| 20260506164036 | 76 | 45 | 0.0 | 0.0 | 0.00 | 0.01 | 0.01 | 99 | 1014.0 |
| 20260506163532 | 76 | 42 | 0.0 | 0.0 | 0.00 | 0.01 | 0.01 | 99 | 1014.2 |
| 20260506163027 | 76 | 69 | 0.0 | 0.0 | 0.00 | 0.01 | 0.01 | 99 | 1014.0 |
| 20260506162524 | 76 | 71 | 0.0 | 0.0 | 0.00 | 0.01 | 0.01 | 99 | 1014.0 |
| 20260506162021 | 77 | 78 | 0.0 | 0.0 | 0.00 | 0.01 | 0.01 | 99 | 1013.9 |
| 20260506161519 | 77 | 68 | 0.0 | 0.0 | 0.00 | 0.01 | 0.01 | 99 | 1014.0 |
| 20260506161015 | 76 | 75 | 0.0 | 0.0 | 0.05 | 0.01 | 0.01 | 99 | 1013.7 |
| 20260506160513 | 75 | 70 | 0.0 | 0.0 | 0.05 | 0.01 | 0.01 | 99 | 1013.7 |
| 20260506160010 | 75 | 74 | 0.0 | 0.0 | 0.00 | 0.00 | 0.00 | 99 | 1013.8 |
| 20260506155508 | 75 | 59 | 0.0 | 0.0 | 0.00 | 0.00 | 0.00 | 99 | 1013.8 |
| 20260506153640 | 75 | 70 | 0.0 | 0.0 | 0.00 | 0.00 | 0.00 | 99 | 1013.9 |
| 20260506153137 | 74 | 68 | 0.0 | 0.0 | 0.00 | 0.00 | 0.00 | 99 | 1014.0 |
| 20260506152634 | 74 | 59 | 0.0 | 0.0 | 0.00 | 0.00 | 0.00 | 99 | 1013.8 |
| 20260506152132 | 74 | 59 | 0.0 | 0.0 | 0.00 | 0.00 | 0.00 | 99 | 1013.9 |
| 20260506151630 | 74 | 73 | 0.0 | 0.0 | 0.00 | 0.00 | 0.00 | 99 | 1013.7 |
| 20260506151127 | 74 | 66 | 0.0 | 0.0 | 0.00 | 0.00 | 0.00 | 99 | 1013.8 |
| 20260506150624 | 74 | 59 | 0.0 | 0.0 | 0.00 | 0.00 | 0.00 | 99 | 1013.9 |
| 20260506150120 | 74 | 69 | 0.0 | 0.0 | 0.00 | 0.00 | 0.00 | 99 | 1013.6 |
| 20260506145618 | 74 | 76 | 0.0 | 0.0 | 0.00 | 0.00 | 0.00 | 99 | 1014.0 |
| 20260506145114 | 74 | 68 | 0.0 | 0.0 | 0.00 | 0.00 | 0.00 | 99 | 1013.8 |
| 20260506144612 | 74 | 70 | 0.0 | 0.0 | 0.00 | 0.00 | 0.00 | 99 | 1013.9 |
| 20260506144108 | 74 | 70 | 0.0 | 0.0 | 0.00 | 0.00 | 0.00 | 99 | 1013.8 |
| 20260506143606 | 73 | 76 | 0.0 | 0.0 | 0.00 | 0.00 | 0.00 | 99 | 1013.7 |
| 20260506143104 | 73 | 35 | 0.0 | 0.0 | 0.00 | 0.00 | 0.00 | 99 | 1013.7 |
| 20260506142602 | 73 | 244 | 0.0 | 0.0 | 0.00 | 0.00 | 0.00 | 99 | 1013.7 |
| 20260506142100 | 73 | 68 | 0.0 | 0.0 | 0.00 | 0.00 | 0.00 | 99 | 1013.6 |
| 20260506141557 | 73 | 67 | 0.0 | 0.0 | 0.00 | 0.00 | 0.00 | 99 | 1013.6 |
| 20260506141055 | 73 | 68 | 0.0 | 0.0 | 0.00 | 0.00 | 0.00 | 99 | 1013.3 |
| 20260506140552 | 73 | 61 | 0.0 | 0.0 | 0.00 | 0.00 | 0.00 | 99 | 1013.5 |
| 20260506140050 | 73 | 48 | 0.0 | 0.0 | 0.00 | 0.00 | 0.00 | 99 | 1013.4 |
| 20260506135546 | 73 | 64 | 0.0 | 0.0 | 0.00 | 0.00 | 0.00 | 99 | 1013.4 |
| 20260506135042 | 73 | 64 | 0.0 | 0.0 | 0.00 | 0.00 | 0.00 | 99 | 1013.2 |
| 20260506134539 | 73 | 80 | 0.0 | 0.0 | 0.00 | 0.00 | 0.00 | 99 | 1013.2 |
| 20260506134035 | 73 | 54 | 0.0 | 0.0 | 0.00 | 0.00 | 0.00 | 99 | 1013.2 |
| 20260506133532 | 73 | 68 | 0.0 | 0.0 | 0.00 | 0.00 | 0.00 | 99 | 1013.0 |
| 20260506133029 | 73 | 76 | 0.0 | 0.0 | 0.00 | 0.00 | 0.00 | 99 | 1013.0 |
| 20260506132526 | 72 | 66 | 0.0 | 0.0 | 0.00 | 0.00 | 0.00 | 99 | 1013.1 |
| 20260506132024 | 72 | 76 | 0.0 | 0.0 | 0.00 | 0.00 | 0.00 | 99 | 1013.0 |
| 20260506131521 | 72 | 69 | 0.0 | 0.0 | 0.00 | 0.00 | 0.00 | 99 | 1013.2 |
| 20260506131017 | 72 | 68 | 0.0 | 0.0 | 0.00 | 0.00 | 0.00 | 99 | 1013.1 |
| 20260506130514 | 72 | 71 | 0.0 | 0.0 | 0.00 | 0.00 | 0.00 | 99 | 1013.3 |
| 20260506130012 | 72 | 48 | 0.0 | 0.0 | 0.00 | 0.00 | 0.00 | 99 | 1013.1 |
| 20260506125510 | 71 | 66 | 0.0 | 0.0 | 0.00 | 0.00 | 0.00 | 99 | 1013.1 |